{"data":{"norad_id":67409,"epoch":"2026-09-19T07:09:24.492960Z","epoch_age_seconds":179116,"freshness":"STALE","line1":"1 67409U 26005F   26262.29820015  .00006510  00000+0  24589-3 0  9996","line2":"2 67409  43.0014 224.8249 0001446 268.4712  91.5974 15.27579339 38306","mean_motion":15.27579339,"eccentricity":0.0001446,"inclination_deg":43.0014,"raan_deg":224.8249,"arg_perigee_deg":268.4712,"mean_anomaly_deg":91.5974,"bstar":0.00024589,"rev_number":3830,"period_min":94.266789503887,"perigee_km":482.05894751647,"apogee_km":484.04320310785,"semimajor_km":6861.1880753122,"source":"CELESTRAK","updated_at":"2026-09-20T09:00:43.519427Z"}}